Data supplied by UK-AIR on 30/3/2010
All Data GMT hour ending 
Status: R =Ratified P=Provisional,P*=As supplied
,,Exeter Roadside,,,,,,,,,,,,,,,,,,,,,,,
Date,time,"Nitric oxide",status,unit,"Nitrogen dioxide",status,unit,"Nitrogen oxides as nitrogen dioxide",status,unit,"Ozone",status,unit
 
01-01-2009,01:00,26,R,ugm-3,48,R,ugm-3,88,R,ugm-3,2,R,ugm-3
01-01-2009,02:00,31,R,ugm-3,44,R,ugm-3,92,R,ugm-3,0,R,ugm-3
01-01-2009,03:00,26,R,ugm-3,46,R,ugm-3,86,R,ugm-3,4,R,ugm-3
01-01-2009,04:00,26,R,ugm-3,44,R,ugm-3,84,R,ugm-3,6,R,ugm-3
01-01-2009,05:00,4,R,ugm-3,32,R,ugm-3,38,R,ugm-3,8,R,ugm-3
01-01-2009,06:00,20,R,ugm-3,36,R,ugm-3,67,R,ugm-3,6,R,ugm-3
01-01-2009,07:00,15,R,ugm-3,36,R,ugm-3,59,R,ugm-3,6,R,ugm-3
01-01-2009,08:00,11,R,ugm-3,34,R,ugm-3,52,R,ugm-3,6,R,ugm-3
01-01-2009,09:00,14,R,ugm-3,34,R,ugm-3,55,R,ugm-3,8,R,ugm-3
01-01-2009,10:00,20,R,ugm-3,36,R,ugm-3,67,R,ugm-3,10,R,ugm-3
01-01-2009,11:00,30,R,ugm-3,42,R,ugm-3,88,R,ugm-3,12,R,ugm-3
01-01-2009,12:00,33,R,ugm-3,44,R,ugm-3,94,R,ugm-3,14,R,ugm-3
01-01-2009,13:00,34,R,ugm-3,42,R,ugm-3,94,R,ugm-3,16,R,ugm-3
01-01-2009,14:00,36,R,ugm-3,44,R,ugm-3,99,R,ugm-3,14,R,ugm-3
01-01-2009,15:00,33,R,ugm-3,42,R,ugm-3,92,R,ugm-3,14,R,ugm-3
01-01-2009,16:00,48,R,ugm-3,48,R,ugm-3,120,R,ugm-3,14,R,ugm-3
01-01-2009,17:00,30,R,ugm-3,38,R,ugm-3,84,R,ugm-3,16,R,ugm-3
01-01-2009,18:00,19,R,ugm-3,32,R,ugm-3,61,R,ugm-3,18,R,ugm-3
01-01-2009,19:00,18,R,ugm-3,31,R,ugm-3,57,R,ugm-3,20,R,ugm-3
01-01-2009,20:00,14,R,ugm-3,29,R,ugm-3,50,R,ugm-3,22,R,ugm-3
01-01-2009,21:00,14,R,ugm-3,29,R,ugm-3,50,R,ugm-3,22,R,ugm-3
01-01-2009,22:00,13,R,ugm-3,27,R,ugm-3,46,R,ugm-3,24,R,ugm-3
01-01-2009,23:00,20,R,ugm-3,27,R,ugm-3,57,R,ugm-3,24,R,ugm-3
01-01-2009,24:00,9,R,ugm-3,21,R,ugm-3,34,R,ugm-3,28,R,ugm-3
02-01-2009,01:00,14,R,ugm-3,15,R,ugm-3,36,R,ugm-3,32,R,ugm-3
02-01-2009,02:00,4,R,ugm-3,15,R,ugm-3,21,R,ugm-3,30,R,ugm-3
02-01-2009,03:00,6,R,ugm-3,17,R,ugm-3,27,R,ugm-3,30,R,ugm-3
02-01-2009,04:00,1,R,ugm-3,15,R,ugm-3,17,R,ugm-3,32,R,ugm-3
02-01-2009,05:00,5,R,ugm-3,17,R,ugm-3,25,R,ugm-3,32,R,ugm-3
02-01-2009,06:00,43,R,ugm-3,36,R,ugm-3,101,R,ugm-3,20,R,ugm-3
02-01-2009,07:00,69,R,ugm-3,52,R,ugm-3,157,R,ugm-3,10,R,ugm-3
02-01-2009,08:00,78,R,ugm-3,57,R,ugm-3,176,R,ugm-3,6,R,ugm-3
02-01-2009,09:00,108,R,ugm-3,73,R,ugm-3,237,R,ugm-3,10,R,ugm-3
02-01-2009,10:00,113,R,ugm-3,67,R,ugm-3,239,R,ugm-3,10,R,ugm-3
02-01-2009,11:00,181,R,ugm-3,103,R,ugm-3,380,R,ugm-3,8,R,ugm-3
02-01-2009,12:00,125,R,ugm-3,99,R,ugm-3,290,R,ugm-3,12,R,ugm-3
02-01-2009,13:00,134,R,ugm-3,92,R,ugm-3,296,R,ugm-3,12,R,ugm-3
02-01-2009,14:00,215,R,ugm-3,90,R,ugm-3,418,R,ugm-3,8,R,ugm-3
02-01-2009,15:00,168,R,ugm-3,97,R,ugm-3,353,R,ugm-3,4,R,ugm-3
02-01-2009,16:00,186,R,ugm-3,97,R,ugm-3,382,R,ugm-3,2,R,ugm-3
02-01-2009,17:00,206,R,ugm-3,99,R,ugm-3,414,R,ugm-3,2,R,ugm-3
02-01-2009,18:00,100,R,ugm-3,90,R,ugm-3,243,R,ugm-3,2,R,ugm-3
02-01-2009,19:00,103,R,ugm-3,82,R,ugm-3,239,R,ugm-3,0,R,ugm-3
02-01-2009,20:00,89,R,ugm-3,73,R,ugm-3,208,R,ugm-3,4,R,ugm-3
02-01-2009,21:00,83,R,ugm-3,69,R,ugm-3,195,R,ugm-3,2,R,ugm-3
02-01-2009,22:00,58,R,ugm-3,69,R,ugm-3,157,R,ugm-3,2,R,ugm-3
02-01-2009,23:00,60,R,ugm-3,67,R,ugm-3,159,R,ugm-3,2,R,ugm-3
02-01-2009,24:00,38,R,ugm-3,50,R,ugm-3,107,R,ugm-3,12,R,ugm-3
03-01-2009,01:00,24,R,ugm-3,38,R,ugm-3,74,R,ugm-3,18,R,ugm-3
03-01-2009,02:00,16,R,ugm-3,31,R,ugm-3,55,R,ugm-3,26,R,ugm-3
03-01-2009,03:00,6,R,ugm-3,29,R,ugm-3,38,R,ugm-3,28,R,ugm-3
03-01-2009,04:00,1,R,ugm-3,23,R,ugm-3,25,R,ugm-3,30,R,ugm-3
03-01-2009,05:00,45,R,ugm-3,32,R,ugm-3,101,R,ugm-3,14,R,ugm-3
03-01-2009,06:00,80,R,ugm-3,52,R,ugm-3,174,R,ugm-3,4,R,ugm-3
03-01-2009,07:00,69,R,ugm-3,57,R,ugm-3,162,R,ugm-3,2,R,ugm-3
03-01-2009,08:00,131,R,ugm-3,67,R,ugm-3,267,R,ugm-3,0,R,ugm-3
03-01-2009,09:00,139,R,ugm-3,74,R,ugm-3,287,R,ugm-3,2,R,ugm-3
03-01-2009,10:00,101,R,ugm-3,67,R,ugm-3,222,R,ugm-3,6,R,ugm-3
03-01-2009,11:00,103,R,ugm-3,59,R,ugm-3,216,R,ugm-3,12,R,ugm-3
03-01-2009,12:00,108,R,ugm-3,59,R,ugm-3,223,R,ugm-3,14,R,ugm-3
03-01-2009,13:00,168,R,ugm-3,86,R,ugm-3,342,R,ugm-3,10,R,ugm-3
03-01-2009,14:00,188,R,ugm-3,84,R,ugm-3,371,R,ugm-3,8,R,ugm-3
03-01-2009,15:00,159,R,ugm-3,94,R,ugm-3,336,R,ugm-3,4,R,ugm-3
03-01-2009,16:00,175,R,ugm-3,96,R,ugm-3,363,R,ugm-3,4,R,ugm-3
03-01-2009,17:00,189,R,ugm-3,99,R,ugm-3,388,R,ugm-3,4,R,ugm-3
03-01-2009,18:00,139,R,ugm-3,78,R,ugm-3,290,R,ugm-3,4,R,ugm-3
03-01-2009,19:00,91,R,ugm-3,73,R,ugm-3,212,R,ugm-3,6,R,ugm-3
03-01-2009,20:00,96,R,ugm-3,76,R,ugm-3,223,R,ugm-3,2,R,ugm-3
03-01-2009,21:00,89,R,ugm-3,63,R,ugm-3,199,R,ugm-3,0,R,ugm-3
03-01-2009,22:00,91,R,ugm-3,53,R,ugm-3,193,R,ugm-3,0,R,ugm-3
03-01-2009,23:00,58,R,ugm-3,52,R,ugm-3,139,R,ugm-3,4,R,ugm-3
03-01-2009,24:00,28,R,ugm-3,40,R,ugm-3,82,R,ugm-3,12,R,ugm-3
04-01-2009,01:00,20,R,ugm-3,34,R,ugm-3,65,R,ugm-3,14,R,ugm-3
04-01-2009,02:00,25,R,ugm-3,36,R,ugm-3,74,R,ugm-3,14,R,ugm-3
04-01-2009,03:00,13,R,ugm-3,34,R,ugm-3,53,R,ugm-3,12,R,ugm-3
04-01-2009,04:00,8,R,ugm-3,38,R,ugm-3,50,R,ugm-3,8,R,ugm-3
04-01-2009,05:00,4,R,ugm-3,38,R,ugm-3,44,R,ugm-3,4,R,ugm-3
04-01-2009,06:00,10,R,ugm-3,42,R,ugm-3,57,R,ugm-3,4,R,ugm-3
04-01-2009,07:00,11,R,ugm-3,38,R,ugm-3,55,R,ugm-3,4,R,ugm-3
04-01-2009,08:00,30,R,ugm-3,52,R,ugm-3,97,R,ugm-3,2,R,ugm-3
04-01-2009,09:00,65,R,ugm-3,59,R,ugm-3,159,R,ugm-3,0,R,ugm-3
04-01-2009,10:00,124,R,ugm-3,69,R,ugm-3,258,R,ugm-3,0,R,ugm-3
04-01-2009,11:00,165,R,ugm-3,73,R,ugm-3,325,R,ugm-3,0,R,ugm-3
04-01-2009,12:00,169,R,ugm-3,84,R,ugm-3,342,R,ugm-3,0,R,ugm-3
04-01-2009,13:00,123,R,ugm-3,76,R,ugm-3,264,R,ugm-3,0,R,ugm-3
04-01-2009,14:00,146,R,ugm-3,74,R,ugm-3,298,R,ugm-3,2,R,ugm-3
04-01-2009,15:00,213,R,ugm-3,78,R,ugm-3,403,R,ugm-3,0,R,ugm-3
04-01-2009,16:00,195,R,ugm-3,78,R,ugm-3,376,R,ugm-3,0,R,ugm-3
04-01-2009,17:00,151,R,ugm-3,73,R,ugm-3,304,R,ugm-3,0,R,ugm-3
04-01-2009,18:00,206,R,ugm-3,86,R,ugm-3,401,R,ugm-3,0,R,ugm-3
04-01-2009,19:00,223,R,ugm-3,86,R,ugm-3,426,R,ugm-3,0,R,ugm-3
04-01-2009,20:00,181,R,ugm-3,88,R,ugm-3,365,R,ugm-3,0,R,ugm-3
04-01-2009,21:00,205,R,ugm-3,61,R,ugm-3,374,R,ugm-3,0,R,ugm-3
04-01-2009,22:00,105,R,ugm-3,63,R,ugm-3,223,R,ugm-3,0,R,ugm-3
04-01-2009,23:00,30,R,ugm-3,34,R,ugm-3,80,R,ugm-3,10,R,ugm-3
04-01-2009,24:00,6,R,ugm-3,23,R,ugm-3,32,R,ugm-3,16,R,ugm-3
05-01-2009,01:00,4,R,ugm-3,15,R,ugm-3,21,R,ugm-3,20,R,ugm-3
05-01-2009,02:00,1,R,ugm-3,8,R,ugm-3,10,R,ugm-3,26,R,ugm-3
05-01-2009,03:00,1,R,ugm-3,8,R,ugm-3,10,R,ugm-3,24,R,ugm-3
05-01-2009,04:00,8,R,ugm-3,15,R,ugm-3,27,R,ugm-3,22,R,ugm-3
05-01-2009,05:00,14,R,ugm-3,21,R,ugm-3,42,R,ugm-3,20,R,ugm-3
05-01-2009,06:00,58,R,ugm-3,38,R,ugm-3,126,R,ugm-3,10,R,ugm-3
05-01-2009,07:00,125,R,ugm-3,71,R,ugm-3,262,R,ugm-3,6,R,ugm-3
05-01-2009,08:00,189,R,ugm-3,96,R,ugm-3,384,R,ugm-3,2,R,ugm-3
05-01-2009,09:00,179,R,ugm-3,96,R,ugm-3,369,R,ugm-3,4,R,ugm-3
05-01-2009,10:00,93,R,ugm-3,74,R,ugm-3,216,R,ugm-3,12,R,ugm-3
05-01-2009,11:00,115,R,ugm-3,80,R,ugm-3,256,R,ugm-3,14,R,ugm-3
05-01-2009,12:00,110,R,ugm-3,65,R,ugm-3,233,R,ugm-3,16,R,ugm-3
05-01-2009,13:00,105,R,ugm-3,71,R,ugm-3,231,R,ugm-3,18,R,ugm-3
05-01-2009,14:00,121,R,ugm-3,84,R,ugm-3,269,R,ugm-3,18,R,ugm-3
05-01-2009,15:00,125,R,ugm-3,97,R,ugm-3,288,R,ugm-3,12,R,ugm-3
05-01-2009,16:00,158,R,ugm-3,97,R,ugm-3,338,R,ugm-3,8,R,ugm-3
05-01-2009,17:00,185,R,ugm-3,111,R,ugm-3,393,R,ugm-3,4,R,ugm-3
05-01-2009,18:00,95,R,ugm-3,80,R,ugm-3,225,R,ugm-3,14,R,ugm-3
05-01-2009,19:00,46,R,ugm-3,53,R,ugm-3,124,R,ugm-3,22,R,ugm-3
05-01-2009,20:00,36,R,ugm-3,48,R,ugm-3,103,R,ugm-3,24,R,ugm-3
05-01-2009,21:00,35,R,ugm-3,27,R,ugm-3,80,R,ugm-3,32,R,ugm-3
05-01-2009,22:00,24,R,ugm-3,34,R,ugm-3,71,R,ugm-3,30,R,ugm-3
05-01-2009,23:00,10,R,ugm-3,27,R,ugm-3,42,R,ugm-3,30,R,ugm-3
05-01-2009,24:00,9,R,ugm-3,23,R,ugm-3,36,R,ugm-3,34,R,ugm-3
06-01-2009,01:00,8,R,ugm-3,23,R,ugm-3,34,R,ugm-3,38,R,ugm-3
06-01-2009,02:00,3,R,ugm-3,19,R,ugm-3,23,R,ugm-3,36,R,ugm-3
06-01-2009,03:00,1,R,ugm-3,17,R,ugm-3,19,R,ugm-3,40,R,ugm-3
06-01-2009,04:00,3,R,ugm-3,19,R,ugm-3,23,R,ugm-3,38,R,ugm-3
06-01-2009,05:00,8,R,ugm-3,31,R,ugm-3,42,R,ugm-3,30,R,ugm-3
06-01-2009,06:00,88,R,ugm-3,48,R,ugm-3,181,R,ugm-3,16,R,ugm-3
06-01-2009,07:00,131,R,ugm-3,84,R,ugm-3,285,R,ugm-3,8,R,ugm-3
06-01-2009,08:00,219,R,ugm-3,111,R,ugm-3,445,R,ugm-3,2,R,ugm-3
06-01-2009,09:00,143,R,ugm-3,97,R,ugm-3,315,R,ugm-3,6,R,ugm-3
06-01-2009,10:00,228,R,ugm-3,109,R,ugm-3,456,R,ugm-3,4,R,ugm-3
06-01-2009,11:00,,,,,,,,,,,,
06-01-2009,12:00,98,R,ugm-3,74,R,ugm-3,223,R,ugm-3,16,R,ugm-3
06-01-2009,13:00,116,R,ugm-3,84,R,ugm-3,262,R,ugm-3,16,R,ugm-3
06-01-2009,14:00,118,R,ugm-3,84,R,ugm-3,264,R,ugm-3,14,R,ugm-3
06-01-2009,15:00,183,R,ugm-3,96,R,ugm-3,374,R,ugm-3,10,R,ugm-3
06-01-2009,16:00,145,R,ugm-3,101,R,ugm-3,323,R,ugm-3,4,R,ugm-3
06-01-2009,17:00,170,R,ugm-3,113,R,ugm-3,372,R,ugm-3,2,R,ugm-3
06-01-2009,18:00,128,R,ugm-3,88,R,ugm-3,283,R,ugm-3,2,R,ugm-3
06-01-2009,19:00,84,R,ugm-3,78,R,ugm-3,206,R,ugm-3,4,R,ugm-3
06-01-2009,20:00,110,R,ugm-3,84,R,ugm-3,252,R,ugm-3,2,R,ugm-3
06-01-2009,21:00,66,R,ugm-3,61,R,ugm-3,162,R,ugm-3,8,R,ugm-3
06-01-2009,22:00,43,R,ugm-3,53,R,ugm-3,118,R,ugm-3,14,R,ugm-3
06-01-2009,23:00,39,R,ugm-3,50,R,ugm-3,109,R,ugm-3,6,R,ugm-3
06-01-2009,24:00,74,R,ugm-3,55,R,ugm-3,168,R,ugm-3,2,R,ugm-3
07-01-2009,01:00,15,R,ugm-3,38,R,ugm-3,61,R,ugm-3,4,R,ugm-3
07-01-2009,02:00,8,R,ugm-3,36,R,ugm-3,48,R,ugm-3,4,R,ugm-3
07-01-2009,03:00,6,R,ugm-3,32,R,ugm-3,42,R,ugm-3,4,R,ugm-3
07-01-2009,04:00,24,R,ugm-3,38,R,ugm-3,74,R,ugm-3,2,R,ugm-3
07-01-2009,05:00,36,R,ugm-3,42,R,ugm-3,97,R,ugm-3,2,R,ugm-3
07-01-2009,06:00,71,R,ugm-3,59,R,ugm-3,168,R,ugm-3,4,R,ugm-3
07-01-2009,07:00,148,R,ugm-3,78,R,ugm-3,304,R,ugm-3,2,R,ugm-3
07-01-2009,08:00,215,R,ugm-3,124,R,ugm-3,453,R,ugm-3,4,R,ugm-3
07-01-2009,09:00,163,R,ugm-3,105,R,ugm-3,353,R,ugm-3,2,R,ugm-3
07-01-2009,10:00,206,R,ugm-3,113,R,ugm-3,428,R,ugm-3,4,R,ugm-3
07-01-2009,11:00,206,R,ugm-3,101,R,ugm-3,416,R,ugm-3,4,R,ugm-3
07-01-2009,12:00,190,R,ugm-3,101,R,ugm-3,392,R,ugm-3,4,R,ugm-3
07-01-2009,13:00,176,R,ugm-3,105,R,ugm-3,374,R,ugm-3,4,R,ugm-3
07-01-2009,14:00,143,R,ugm-3,101,R,ugm-3,319,R,ugm-3,6,R,ugm-3
07-01-2009,15:00,189,R,ugm-3,117,R,ugm-3,405,R,ugm-3,4,R,ugm-3
07-01-2009,16:00,193,R,ugm-3,103,R,ugm-3,397,R,ugm-3,2,R,ugm-3
07-01-2009,17:00,201,R,ugm-3,101,R,ugm-3,409,R,ugm-3,2,R,ugm-3
07-01-2009,18:00,173,R,ugm-3,94,R,ugm-3,357,R,ugm-3,0,R,ugm-3
07-01-2009,19:00,134,R,ugm-3,84,R,ugm-3,288,R,ugm-3,0,R,ugm-3
07-01-2009,20:00,66,R,ugm-3,67,R,ugm-3,168,R,ugm-3,4,R,ugm-3
07-01-2009,21:00,128,R,ugm-3,78,R,ugm-3,273,R,ugm-3,0,R,ugm-3
07-01-2009,22:00,146,R,ugm-3,65,R,ugm-3,288,R,ugm-3,0,R,ugm-3
07-01-2009,23:00,76,R,ugm-3,59,R,ugm-3,176,R,ugm-3,2,R,ugm-3
07-01-2009,24:00,14,R,ugm-3,36,R,ugm-3,57,R,ugm-3,16,R,ugm-3
08-01-2009,01:00,6,R,ugm-3,27,R,ugm-3,36,R,ugm-3,24,R,ugm-3
08-01-2009,02:00,11,R,ugm-3,34,R,ugm-3,52,R,ugm-3,22,R,ugm-3
08-01-2009,03:00,28,R,ugm-3,42,R,ugm-3,84,R,ugm-3,8,R,ugm-3
08-01-2009,04:00,3,R,ugm-3,15,R,ugm-3,19,R,ugm-3,36,R,ugm-3
08-01-2009,05:00,10,R,ugm-3,32,R,ugm-3,48,R,ugm-3,26,R,ugm-3
08-01-2009,06:00,136,R,ugm-3,61,R,ugm-3,269,R,ugm-3,0,R,ugm-3
08-01-2009,07:00,220,R,ugm-3,90,R,ugm-3,426,R,ugm-3,0,R,ugm-3
08-01-2009,08:00,283,R,ugm-3,128,R,ugm-3,560,R,ugm-3,0,R,ugm-3
08-01-2009,09:00,283,R,ugm-3,124,R,ugm-3,556,R,ugm-3,0,R,ugm-3
08-01-2009,10:00,306,R,ugm-3,128,R,ugm-3,596,R,ugm-3,0,R,ugm-3
08-01-2009,11:00,285,R,ugm-3,117,R,ugm-3,552,R,ugm-3,0,R,ugm-3
08-01-2009,12:00,241,R,ugm-3,111,R,ugm-3,479,R,ugm-3,0,R,ugm-3
08-01-2009,13:00,269,R,ugm-3,118,R,ugm-3,529,R,ugm-3,0,R,ugm-3
08-01-2009,14:00,241,R,ugm-3,109,R,ugm-3,478,R,ugm-3,0,R,ugm-3
08-01-2009,15:00,290,R,ugm-3,118,R,ugm-3,562,R,ugm-3,0,R,ugm-3
08-01-2009,16:00,174,R,ugm-3,97,R,ugm-3,363,R,ugm-3,0,R,ugm-3
08-01-2009,17:00,259,R,ugm-3,115,R,ugm-3,510,R,ugm-3,0,R,ugm-3
08-01-2009,18:00,203,R,ugm-3,82,R,ugm-3,392,R,ugm-3,0,R,ugm-3
08-01-2009,19:00,155,R,ugm-3,78,R,ugm-3,315,R,ugm-3,0,R,ugm-3
08-01-2009,20:00,126,R,ugm-3,74,R,ugm-3,267,R,ugm-3,0,R,ugm-3
08-01-2009,21:00,89,R,ugm-3,73,R,ugm-3,208,R,ugm-3,0,R,ugm-3
08-01-2009,22:00,84,R,ugm-3,67,R,ugm-3,195,R,ugm-3,0,R,ugm-3
08-01-2009,23:00,58,R,ugm-3,61,R,ugm-3,149,R,ugm-3,0,R,ugm-3
08-01-2009,24:00,41,R,ugm-3,53,R,ugm-3,117,R,ugm-3,0,R,ugm-3
09-01-2009,01:00,25,R,ugm-3,42,R,ugm-3,80,R,ugm-3,8,R,ugm-3
09-01-2009,02:00,24,R,ugm-3,48,R,ugm-3,84,R,ugm-3,4,R,ugm-3
09-01-2009,03:00,14,R,ugm-3,38,R,ugm-3,59,R,ugm-3,0,R,ugm-3
09-01-2009,04:00,6,R,ugm-3,32,R,ugm-3,42,R,ugm-3,8,R,ugm-3
09-01-2009,05:00,11,R,ugm-3,32,R,ugm-3,50,R,ugm-3,20,R,ugm-3
09-01-2009,06:00,98,R,ugm-3,55,R,ugm-3,204,R,ugm-3,4,R,ugm-3
09-01-2009,07:00,181,R,ugm-3,76,R,ugm-3,353,R,ugm-3,0,R,ugm-3
09-01-2009,08:00,300,R,ugm-3,122,R,ugm-3,581,R,ugm-3,0,R,ugm-3
09-01-2009,09:00,238,R,ugm-3,94,R,ugm-3,456,R,ugm-3,0,R,ugm-3
09-01-2009,10:00,290,R,ugm-3,103,R,ugm-3,546,R,ugm-3,0,R,ugm-3
09-01-2009,11:00,196,R,ugm-3,109,R,ugm-3,409,R,ugm-3,0,R,ugm-3
09-01-2009,12:00,195,R,ugm-3,107,R,ugm-3,405,R,ugm-3,0,R,ugm-3
09-01-2009,13:00,203,R,ugm-3,97,R,ugm-3,407,R,ugm-3,0,R,ugm-3
09-01-2009,14:00,190,R,ugm-3,117,R,ugm-3,407,R,ugm-3,0,R,ugm-3
09-01-2009,15:00,208,R,ugm-3,111,R,ugm-3,428,R,ugm-3,0,R,ugm-3
09-01-2009,16:00,178,R,ugm-3,101,R,ugm-3,372,R,ugm-3,0,R,ugm-3
09-01-2009,17:00,234,R,ugm-3,107,R,ugm-3,464,R,ugm-3,0,R,ugm-3
09-01-2009,18:00,221,R,ugm-3,94,R,ugm-3,432,R,ugm-3,0,R,ugm-3
09-01-2009,19:00,205,R,ugm-3,101,R,ugm-3,414,R,ugm-3,0,R,ugm-3
09-01-2009,20:00,155,R,ugm-3,84,R,ugm-3,321,R,ugm-3,0,R,ugm-3
09-01-2009,21:00,159,R,ugm-3,82,R,ugm-3,325,R,ugm-3,0,R,ugm-3
09-01-2009,22:00,199,R,ugm-3,76,R,ugm-3,380,R,ugm-3,0,R,ugm-3
09-01-2009,23:00,160,R,ugm-3,74,R,ugm-3,319,R,ugm-3,0,R,ugm-3
09-01-2009,24:00,69,R,ugm-3,67,R,ugm-3,172,R,ugm-3,0,R,ugm-3
10-01-2009,01:00,78,R,ugm-3,57,R,ugm-3,176,R,ugm-3,0,R,ugm-3
10-01-2009,02:00,49,R,ugm-3,53,R,ugm-3,128,R,ugm-3,0,R,ugm-3
10-01-2009,03:00,35,R,ugm-3,48,R,ugm-3,101,R,ugm-3,0,R,ugm-3
10-01-2009,04:00,40,R,ugm-3,44,R,ugm-3,105,R,ugm-3,0,R,ugm-3
10-01-2009,05:00,66,R,ugm-3,46,R,ugm-3,147,R,ugm-3,0,R,ugm-3
10-01-2009,06:00,140,R,ugm-3,53,R,ugm-3,267,R,ugm-3,0,R,ugm-3
10-01-2009,07:00,176,R,ugm-3,61,R,ugm-3,330,R,ugm-3,0,R,ugm-3
10-01-2009,08:00,228,R,ugm-3,71,R,ugm-3,418,R,ugm-3,0,R,ugm-3
10-01-2009,09:00,273,R,ugm-3,97,R,ugm-3,514,R,ugm-3,0,R,ugm-3
10-01-2009,10:00,279,R,ugm-3,101,R,ugm-3,527,R,ugm-3,0,R,ugm-3
10-01-2009,11:00,230,R,ugm-3,105,R,ugm-3,456,R,ugm-3,0,R,ugm-3
10-01-2009,12:00,233,R,ugm-3,107,R,ugm-3,462,R,ugm-3,2,R,ugm-3
10-01-2009,13:00,59,R,ugm-3,59,R,ugm-3,149,R,ugm-3,10,R,ugm-3
10-01-2009,14:00,39,R,ugm-3,57,R,ugm-3,117,R,ugm-3,12,R,ugm-3
10-01-2009,15:00,63,R,ugm-3,59,R,ugm-3,155,R,ugm-3,12,R,ugm-3
10-01-2009,16:00,59,R,ugm-3,63,R,ugm-3,153,R,ugm-3,12,R,ugm-3
10-01-2009,17:00,110,R,ugm-3,74,R,ugm-3,243,R,ugm-3,8,R,ugm-3
10-01-2009,18:00,151,R,ugm-3,97,R,ugm-3,329,R,ugm-3,2,R,ugm-3
10-01-2009,19:00,184,R,ugm-3,109,R,ugm-3,390,R,ugm-3,2,R,ugm-3
10-01-2009,20:00,116,R,ugm-3,80,R,ugm-3,258,R,ugm-3,10,R,ugm-3
10-01-2009,21:00,51,R,ugm-3,61,R,ugm-3,139,R,ugm-3,20,R,ugm-3
10-01-2009,22:00,70,R,ugm-3,76,R,ugm-3,183,R,ugm-3,18,R,ugm-3
10-01-2009,23:00,8,R,ugm-3,36,R,ugm-3,48,R,ugm-3,34,R,ugm-3
10-01-2009,24:00,9,R,ugm-3,27,R,ugm-3,40,R,ugm-3,38,R,ugm-3
11-01-2009,01:00,3,R,ugm-3,23,R,ugm-3,27,R,ugm-3,42,R,ugm-3
11-01-2009,02:00,3,R,ugm-3,19,R,ugm-3,23,R,ugm-3,46,R,ugm-3
11-01-2009,03:00,1,R,ugm-3,17,R,ugm-3,19,R,ugm-3,44,R,ugm-3
11-01-2009,04:00,0,R,ugm-3,11,R,ugm-3,11,R,ugm-3,46,R,ugm-3
11-01-2009,05:00,0,R,ugm-3,10,R,ugm-3,10,R,ugm-3,50,R,ugm-3
11-01-2009,06:00,0,R,ugm-3,10,R,ugm-3,10,R,ugm-3,56,R,ugm-3
11-01-2009,07:00,3,R,ugm-3,11,R,ugm-3,15,R,ugm-3,54,R,ugm-3
11-01-2009,08:00,3,R,ugm-3,11,R,ugm-3,15,R,ugm-3,56,R,ugm-3
11-01-2009,09:00,3,R,ugm-3,13,R,ugm-3,17,R,ugm-3,56,R,ugm-3
11-01-2009,10:00,5,R,ugm-3,19,R,ugm-3,27,R,ugm-3,54,R,ugm-3
11-01-2009,11:00,6,R,ugm-3,23,R,ugm-3,32,R,ugm-3,50,R,ugm-3
11-01-2009,12:00,11,R,ugm-3,31,R,ugm-3,48,R,ugm-3,44,R,ugm-3
11-01-2009,13:00,6,R,ugm-3,21,R,ugm-3,31,R,ugm-3,54,R,ugm-3
11-01-2009,14:00,8,R,ugm-3,25,R,ugm-3,36,R,ugm-3,52,R,ugm-3
11-01-2009,15:00,9,R,ugm-3,27,R,ugm-3,40,R,ugm-3,48,R,ugm-3
11-01-2009,16:00,8,R,ugm-3,23,R,ugm-3,34,R,ugm-3,50,R,ugm-3
11-01-2009,17:00,4,R,ugm-3,15,R,ugm-3,21,R,ugm-3,56,R,ugm-3
11-01-2009,18:00,4,R,ugm-3,13,R,ugm-3,19,R,ugm-3,58,R,ugm-3
11-01-2009,19:00,3,R,ugm-3,13,R,ugm-3,17,R,ugm-3,58,R,ugm-3
11-01-2009,20:00,1,R,ugm-3,11,R,ugm-3,13,R,ugm-3,60,R,ugm-3
11-01-2009,21:00,1,R,ugm-3,11,R,ugm-3,13,R,ugm-3,62,R,ugm-3
11-01-2009,22:00,3,R,ugm-3,10,R,ugm-3,13,R,ugm-3,64,R,ugm-3
11-01-2009,23:00,1,R,ugm-3,8,R,ugm-3,10,R,ugm-3,66,R,ugm-3
11-01-2009,24:00,0,R,ugm-3,8,R,ugm-3,8,R,ugm-3,62,R,ugm-3
12-01-2009,01:00,0,R,ugm-3,6,R,ugm-3,6,R,ugm-3,66,R,ugm-3
12-01-2009,02:00,0,R,ugm-3,4,R,ugm-3,4,R,ugm-3,64,R,ugm-3
12-01-2009,03:00,0,R,ugm-3,4,R,ugm-3,4,R,ugm-3,68,R,ugm-3
12-01-2009,04:00,0,R,ugm-3,4,R,ugm-3,4,R,ugm-3,68,R,ugm-3
12-01-2009,05:00,0,R,ugm-3,6,R,ugm-3,6,R,ugm-3,66,R,ugm-3
12-01-2009,06:00,4,R,ugm-3,13,R,ugm-3,19,R,ugm-3,60,R,ugm-3
12-01-2009,07:00,9,R,ugm-3,27,R,ugm-3,40,R,ugm-3,50,R,ugm-3
12-01-2009,08:00,14,R,ugm-3,36,R,ugm-3,57,R,ugm-3,44,R,ugm-3
12-01-2009,09:00,10,R,ugm-3,31,R,ugm-3,46,R,ugm-3,48,R,ugm-3
12-01-2009,10:00,10,R,ugm-3,31,R,ugm-3,46,R,ugm-3,52,R,ugm-3
12-01-2009,11:00,11,R,ugm-3,29,R,ugm-3,46,R,ugm-3,52,R,ugm-3
12-01-2009,12:00,10,R,ugm-3,29,R,ugm-3,44,R,ugm-3,54,R,ugm-3
12-01-2009,13:00,10,R,ugm-3,27,R,ugm-3,42,R,ugm-3,52,R,ugm-3
12-01-2009,14:00,13,R,ugm-3,31,R,ugm-3,50,R,ugm-3,48,R,ugm-3
12-01-2009,15:00,40,R,ugm-3,48,R,ugm-3,109,R,ugm-3,34,R,ugm-3
12-01-2009,16:00,39,R,ugm-3,52,R,ugm-3,111,R,ugm-3,32,R,ugm-3
12-01-2009,17:00,35,R,ugm-3,52,R,ugm-3,105,R,ugm-3,36,R,ugm-3
12-01-2009,18:00,19,R,ugm-3,36,R,ugm-3,65,R,ugm-3,44,R,ugm-3
12-01-2009,19:00,4,R,ugm-3,23,R,ugm-3,29,R,ugm-3,54,R,ugm-3
12-01-2009,20:00,3,R,ugm-3,17,R,ugm-3,21,R,ugm-3,56,R,ugm-3
12-01-2009,21:00,5,R,ugm-3,25,R,ugm-3,32,R,ugm-3,52,R,ugm-3
12-01-2009,22:00,6,R,ugm-3,32,R,ugm-3,42,R,ugm-3,48,R,ugm-3
12-01-2009,23:00,3,R,ugm-3,21,R,ugm-3,25,R,ugm-3,52,R,ugm-3
12-01-2009,24:00,6,R,ugm-3,25,R,ugm-3,34,R,ugm-3,50,R,ugm-3
13-01-2009,01:00,16,R,ugm-3,36,R,ugm-3,61,R,ugm-3,38,R,ugm-3
13-01-2009,02:00,20,R,ugm-3,44,R,ugm-3,74,R,ugm-3,30,R,ugm-3
13-01-2009,03:00,6,R,ugm-3,23,R,ugm-3,32,R,ugm-3,38,R,ugm-3
13-01-2009,04:00,1,R,ugm-3,15,R,ugm-3,17,R,ugm-3,44,R,ugm-3
13-01-2009,05:00,9,R,ugm-3,36,R,ugm-3,50,R,ugm-3,26,R,ugm-3
13-01-2009,06:00,79,R,ugm-3,65,R,ugm-3,185,R,ugm-3,10,R,ugm-3
13-01-2009,07:00,204,R,ugm-3,97,R,ugm-3,409,R,ugm-3,2,R,ugm-3
13-01-2009,08:00,239,R,ugm-3,122,R,ugm-3,487,R,ugm-3,4,R,ugm-3
13-01-2009,09:00,205,R,ugm-3,117,R,ugm-3,430,R,ugm-3,4,R,ugm-3
13-01-2009,10:00,90,R,ugm-3,88,R,ugm-3,225,R,ugm-3,16,R,ugm-3
13-01-2009,11:00,30,R,ugm-3,44,R,ugm-3,90,R,ugm-3,34,R,ugm-3
13-01-2009,12:00,43,R,ugm-3,46,R,ugm-3,111,R,ugm-3,36,R,ugm-3
13-01-2009,13:00,55,R,ugm-3,57,R,ugm-3,141,R,ugm-3,34,R,ugm-3
13-01-2009,14:00,29,R,ugm-3,40,R,ugm-3,84,R,ugm-3,40,R,ugm-3
13-01-2009,15:00,19,R,ugm-3,34,R,ugm-3,63,R,ugm-3,44,R,ugm-3
13-01-2009,16:00,56,R,ugm-3,69,R,ugm-3,155,R,ugm-3,24,R,ugm-3
13-01-2009,17:00,151,R,ugm-3,111,R,ugm-3,342,R,ugm-3,6,R,ugm-3
13-01-2009,18:00,89,R,ugm-3,92,R,ugm-3,227,R,ugm-3,6,R,ugm-3
13-01-2009,19:00,26,R,ugm-3,63,R,ugm-3,103,R,ugm-3,20,R,ugm-3
13-01-2009,20:00,56,R,ugm-3,76,R,ugm-3,162,R,ugm-3,12,R,ugm-3
13-01-2009,21:00,19,R,ugm-3,40,R,ugm-3,69,R,ugm-3,34,R,ugm-3
13-01-2009,22:00,29,R,ugm-3,42,R,ugm-3,86,R,ugm-3,36,R,ugm-3
13-01-2009,23:00,15,R,ugm-3,32,R,ugm-3,55,R,ugm-3,48,R,ugm-3
13-01-2009,24:00,9,R,ugm-3,31,R,ugm-3,44,R,ugm-3,44,R,ugm-3
14-01-2009,01:00,13,R,ugm-3,36,R,ugm-3,55,R,ugm-3,34,R,ugm-3
14-01-2009,02:00,10,R,ugm-3,42,R,ugm-3,57,R,ugm-3,18,R,ugm-3
14-01-2009,03:00,1,R,ugm-3,34,R,ugm-3,36,R,ugm-3,20,R,ugm-3
14-01-2009,04:00,15,R,ugm-3,44,R,ugm-3,67,R,ugm-3,6,R,ugm-3
14-01-2009,05:00,29,R,ugm-3,48,R,ugm-3,92,R,ugm-3,4,R,ugm-3
14-01-2009,06:00,126,R,ugm-3,61,R,ugm-3,254,R,ugm-3,0,R,ugm-3
14-01-2009,07:00,184,R,ugm-3,76,R,ugm-3,357,R,ugm-3,0,R,ugm-3
14-01-2009,08:00,293,R,ugm-3,109,R,ugm-3,556,R,ugm-3,0,R,ugm-3
14-01-2009,09:00,243,R,ugm-3,105,R,ugm-3,476,R,ugm-3,2,R,ugm-3
14-01-2009,10:00,315,R,ugm-3,105,R,ugm-3,586,R,ugm-3,2,R,ugm-3
14-01-2009,11:00,250,R,ugm-3,120,R,ugm-3,502,R,ugm-3,2,R,ugm-3
14-01-2009,12:00,146,R,ugm-3,107,R,ugm-3,330,R,ugm-3,4,R,ugm-3
14-01-2009,13:00,79,R,ugm-3,86,R,ugm-3,206,R,ugm-3,12,R,ugm-3
14-01-2009,14:00,23,R,ugm-3,40,R,ugm-3,74,R,ugm-3,42,R,ugm-3
14-01-2009,15:00,83,R,ugm-3,55,R,ugm-3,181,R,ugm-3,38,R,ugm-3
14-01-2009,16:00,26,R,ugm-3,44,R,ugm-3,84,R,ugm-3,36,R,ugm-3
14-01-2009,17:00,50,R,ugm-3,57,R,ugm-3,134,R,ugm-3,28,R,ugm-3
14-01-2009,18:00,24,R,ugm-3,40,R,ugm-3,76,R,ugm-3,34,R,ugm-3
14-01-2009,19:00,20,R,ugm-3,36,R,ugm-3,67,R,ugm-3,36,R,ugm-3
14-01-2009,20:00,15,R,ugm-3,25,R,ugm-3,48,R,ugm-3,42,R,ugm-3
14-01-2009,21:00,6,R,ugm-3,23,R,ugm-3,32,R,ugm-3,46,R,ugm-3
14-01-2009,22:00,3,R,ugm-3,15,R,ugm-3,19,R,ugm-3,52,R,ugm-3
14-01-2009,23:00,1,R,ugm-3,11,R,ugm-3,13,R,ugm-3,54,R,ugm-3
14-01-2009,24:00,1,R,ugm-3,11,R,ugm-3,13,R,ugm-3,56,R,ugm-3
15-01-2009,01:00,1,R,ugm-3,11,R,ugm-3,13,R,ugm-3,54,R,ugm-3
15-01-2009,02:00,1,R,ugm-3,10,R,ugm-3,11,R,ugm-3,54,R,ugm-3
15-01-2009,03:00,0,R,ugm-3,6,R,ugm-3,6,R,ugm-3,60,R,ugm-3
15-01-2009,04:00,0,R,ugm-3,10,R,ugm-3,10,R,ugm-3,56,R,ugm-3
15-01-2009,05:00,1,R,ugm-3,11,R,ugm-3,13,R,ugm-3,56,R,ugm-3
15-01-2009,06:00,13,R,ugm-3,25,R,ugm-3,44,R,ugm-3,46,R,ugm-3
15-01-2009,07:00,19,R,ugm-3,32,R,ugm-3,61,R,ugm-3,42,R,ugm-3
15-01-2009,08:00,14,R,ugm-3,32,R,ugm-3,53,R,ugm-3,42,R,ugm-3
15-01-2009,09:00,11,R,ugm-3,34,R,ugm-3,52,R,ugm-3,40,R,ugm-3
15-01-2009,10:00,11,R,ugm-3,29,R,ugm-3,46,R,ugm-3,44,R,ugm-3
15-01-2009,11:00,15,R,ugm-3,31,R,ugm-3,53,R,ugm-3,44,R,ugm-3
15-01-2009,12:00,16,R,ugm-3,29,R,ugm-3,53,R,ugm-3,44,R,ugm-3
15-01-2009,13:00,23,R,ugm-3,34,R,ugm-3,69,R,ugm-3,38,R,ugm-3
15-01-2009,14:00,31,R,ugm-3,38,R,ugm-3,86,R,ugm-3,34,R,ugm-3
15-01-2009,15:00,34,R,ugm-3,40,R,ugm-3,92,R,ugm-3,30,R,ugm-3
15-01-2009,16:00,31,R,ugm-3,42,R,ugm-3,90,R,ugm-3,28,R,ugm-3
15-01-2009,17:00,33,R,ugm-3,40,R,ugm-3,90,R,ugm-3,30,R,ugm-3
15-01-2009,18:00,19,R,ugm-3,34,R,ugm-3,63,R,ugm-3,32,R,ugm-3
15-01-2009,19:00,16,R,ugm-3,29,R,ugm-3,53,R,ugm-3,36,R,ugm-3
15-01-2009,20:00,6,R,ugm-3,27,R,ugm-3,36,R,ugm-3,36,R,ugm-3
15-01-2009,21:00,9,R,ugm-3,29,R,ugm-3,42,R,ugm-3,32,R,ugm-3
15-01-2009,22:00,19,R,ugm-3,36,R,ugm-3,65,R,ugm-3,28,R,ugm-3
15-01-2009,23:00,24,R,ugm-3,36,R,ugm-3,73,R,ugm-3,28,R,ugm-3
15-01-2009,24:00,6,R,ugm-3,27,R,ugm-3,36,R,ugm-3,34,R,ugm-3
16-01-2009,01:00,3,R,ugm-3,23,R,ugm-3,27,R,ugm-3,44,R,ugm-3
16-01-2009,02:00,1,R,ugm-3,19,R,ugm-3,21,R,ugm-3,48,R,ugm-3
16-01-2009,03:00,3,R,ugm-3,21,R,ugm-3,25,R,ugm-3,44,R,ugm-3
16-01-2009,04:00,1,R,ugm-3,17,R,ugm-3,19,R,ugm-3,54,R,ugm-3
16-01-2009,05:00,6,R,ugm-3,27,R,ugm-3,36,R,ugm-3,42,R,ugm-3
16-01-2009,06:00,18,R,ugm-3,40,R,ugm-3,67,R,ugm-3,38,R,ugm-3
16-01-2009,07:00,50,R,ugm-3,71,R,ugm-3,147,R,ugm-3,18,R,ugm-3
16-01-2009,08:00,59,R,ugm-3,76,R,ugm-3,166,R,ugm-3,18,R,ugm-3
16-01-2009,09:00,136,R,ugm-3,99,R,ugm-3,308,R,ugm-3,8,R,ugm-3
16-01-2009,10:00,35,R,ugm-3,52,R,ugm-3,105,R,ugm-3,26,R,ugm-3
16-01-2009,11:00,43,R,ugm-3,55,R,ugm-3,120,R,ugm-3,22,R,ugm-3
16-01-2009,12:00,25,R,ugm-3,52,R,ugm-3,90,R,ugm-3,28,R,ugm-3
16-01-2009,13:00,18,R,ugm-3,44,R,ugm-3,71,R,ugm-3,36,R,ugm-3
16-01-2009,14:00,19,R,ugm-3,40,R,ugm-3,69,R,ugm-3,38,R,ugm-3
16-01-2009,15:00,18,R,ugm-3,40,R,ugm-3,67,R,ugm-3,38,R,ugm-3
16-01-2009,16:00,21,R,ugm-3,42,R,ugm-3,74,R,ugm-3,38,R,ugm-3
16-01-2009,17:00,11,R,ugm-3,34,R,ugm-3,52,R,ugm-3,42,R,ugm-3
16-01-2009,18:00,9,R,ugm-3,29,R,ugm-3,42,R,ugm-3,48,R,ugm-3
16-01-2009,19:00,6,R,ugm-3,25,R,ugm-3,34,R,ugm-3,52,R,ugm-3
16-01-2009,20:00,5,R,ugm-3,23,R,ugm-3,31,R,ugm-3,58,R,ugm-3
16-01-2009,21:00,4,R,ugm-3,21,R,ugm-3,27,R,ugm-3,58,R,ugm-3
16-01-2009,22:00,5,R,ugm-3,17,R,ugm-3,25,R,ugm-3,64,R,ugm-3
16-01-2009,23:00,4,R,ugm-3,17,R,ugm-3,23,R,ugm-3,68,R,ugm-3
16-01-2009,24:00,3,R,ugm-3,13,R,ugm-3,17,R,ugm-3,72,R,ugm-3
17-01-2009,01:00,1,R,ugm-3,8,R,ugm-3,10,R,ugm-3,76,R,ugm-3
17-01-2009,02:00,1,R,ugm-3,11,R,ugm-3,13,R,ugm-3,72,R,ugm-3
17-01-2009,03:00,0,R,ugm-3,6,R,ugm-3,6,R,ugm-3,76,R,ugm-3